| time (UTC) | temp C | wind direction | speed KPH | gust KPH | rain 1hr cm | rain 24hr cm | rain mn cm | humidity % | barometer mb |
| 20260505054448 | 22 | 185 | 0.0 | 4.8 | 0.00 | 0.00 | 0.00 | 63 | 1010.5 |
| 20260505054444 | 22 | 179 | 0.0 | 4.8 | 0.00 | 0.00 | 0.00 | 64 | 1010.5 |
| 20260505054437 | 22 | 238 | 1.6 | 8.0 | 0.00 | 0.00 | 0.00 | 63 | 1010.5 |
| 20260505054434 | 22 | 216 | 3.2 | 8.0 | 0.00 | 0.00 | 0.00 | 63 | 1010.5 |
| 20260505054426 | 22 | 157 | 0.0 | 3.2 | 0.00 | 0.00 | 0.00 | 63 | 1010.5 |
| 20260505054423 | 22 | 195 | 0.0 | 3.2 | 0.00 | 0.00 | 0.00 | 63 | 1010.5 |
| 20260505054418 | 22 | 256 | 0.0 | 6.4 | 0.00 | 0.00 | 0.00 | 62 | 1010.5 |
| 20260505054414 | 22 | 265 | 1.6 | 6.4 | 0.00 | 0.00 | 0.00 | 62 | 1010.5 |
| 20260505054406 | 22 | 197 | 0.0 | 6.4 | 0.00 | 0.00 | 0.00 | 62 | 1010.5 |
| 20260505054359 | 22 | 217 | 0.0 | 8.0 | 0.00 | 0.00 | 0.00 | 61 | 1010.5 |
| 20260505054357 | 22 | 209 | 1.6 | 11.3 | 0.00 | 0.00 | 0.00 | 61 | 1010.6 |
| 20260505054353 | 22 | 240 | 4.8 | 11.3 | 0.00 | 0.00 | 0.00 | 61 | 1010.6 |
| 20260505054351 | 22 | 190 | 0.0 | 8.0 | 0.00 | 0.00 | 0.00 | 61 | 1010.6 |
| 20260505054343 | 22 | 184 | 0.0 | 9.7 | 0.00 | 0.00 | 0.00 | 59 | 1010.7 |
| 20260505054340 | 23 | 169 | 3.2 | 9.7 | 0.00 | 0.00 | 0.00 | 59 | 1010.8 |
| 20260505054331 | 23 | 149 | 1.6 | 11.3 | 0.00 | 0.00 | 0.00 | 58 | 1010.8 |
| 20260505054328 | 23 | 246 | 4.8 | 12.9 | 0.00 | 0.00 | 0.00 | 58 | 1010.9 |
| 20260505054322 | 23 | 180 | 0.0 | 8.0 | 0.00 | 0.00 | 0.00 | 58 | 1010.8 |
| 20260505002511 | 23 | 188 | 1.6 | 12.9 | 0.00 | 0.00 | 0.00 | 56 | 1010.8 |
| 20260505002011 | 24 | 173 | 3.2 | 16.1 | 0.00 | 0.00 | 0.00 | 56 | 1010.9 |
| 20260505001520 | 24 | 138 | 3.2 | 16.1 | 0.00 | 0.00 | 0.00 | 55 | 1010.9 |
| 20260505001012 | 24 | 180 | 3.2 | 14.5 | 0.00 | 0.00 | 0.00 | 55 | 1011.0 |
| 20260505000510 | 24 | 149 | 0.0 | 0.0 | 0.00 | 0.00 | 0.00 | 56 | 1011.0 |
| 20260505000021 | 24 | 209 | 3.2 | 9.7 | 0.00 | 0.00 | 0.00 | 56 | 1011.0 |
| 20260504235505 | 24 | 160 | 1.6 | 9.7 | 0.00 | 0.00 | 0.00 | 54 | 1011.0 |
| 20260504235007 | 24 | 239 | 0.0 | 9.7 | 0.00 | 0.00 | 0.00 | 55 | 1011.0 |
| 20260504234535 | 24 | 188 | 1.6 | 8.0 | 0.00 | 0.00 | 0.00 | 55 | 1010.9 |
| 20260504234532 | 24 | 202 | 1.6 | 11.3 | 0.00 | 0.00 | 0.00 | 54 | 1010.9 |
| 20260504234529 | 24 | 191 | 3.2 | 11.3 | 0.00 | 0.00 | 0.00 | 53 | 1011.0 |
| 20260504234501 | 23 | 227 | 4.8 | 9.7 | 0.00 | 0.00 | 0.00 | 53 | 1011.0 |
| 20260504234453 | 23 | 110 | 0.0 | 9.7 | 0.00 | 0.00 | 0.00 | 54 | 1011.1 |
| 20260504230012 | 23 | 161 | 1.6 | 11.3 | 0.00 | 0.00 | 0.00 | 54 | 1011.2 |
| 20260504225502 | 23 | 244 | 3.2 | 11.3 | 0.00 | 0.00 | 0.00 | 53 | 1011.3 |
| 20260504225005 | 23 | 275 | 0.0 | 4.8 | 0.00 | 0.00 | 0.00 | 54 | 1011.3 |
| 20260504224513 | 23 | 19 | 0.0 | 8.0 | 0.00 | 0.00 | 0.00 | 54 | 1011.3 |
| 20260504224004 | 23 | 182 | 1.6 | 8.0 | 0.00 | 0.00 | 0.00 | 56 | 1011.4 |
| 20260504223504 | 23 | 205 | 0.0 | 8.0 | 0.00 | 0.00 | 0.00 | 53 | 1011.4 |
| 20260504223011 | 23 | 162 | 1.6 | 8.0 | 0.00 | 0.00 | 0.00 | 55 | 1011.5 |
| 20260504222504 | 23 | 152 | 0.0 | 9.7 | 0.00 | 0.00 | 0.00 | 55 | 1011.6 |
| 20260504222005 | 23 | 237 | 1.6 | 9.7 | 0.00 | 0.00 | 0.00 | 56 | 1011.8 |
| 20260504221513 | 22 | 202 | 1.6 | 9.7 | 0.00 | 0.00 | 0.00 | 55 | 1011.8 |
| 20260504221006 | 22 | 156 | 3.2 | 9.7 | 0.00 | 0.00 | 0.00 | 57 | 1012.0 |
| 20260504220507 | 22 | 193 | 0.0 | 6.4 | 0.00 | 0.00 | 0.00 | 57 | 1012.0 |
| 20260504220012 | 22 | 242 | 1.6 | 9.7 | 0.00 | 0.00 | 0.00 | 59 | 1012.0 |
| 20260504215505 | 22 | 121 | 4.8 | 9.7 | 0.00 | 0.00 | 0.00 | 58 | 1012.1 |
| 20260504215004 | 22 | 261 | 1.6 | 9.7 | 0.00 | 0.00 | 0.00 | 58 | 1012.1 |
| 20260504214513 | 22 | 212 | 3.2 | 9.7 | 0.00 | 0.00 | 0.00 | 59 | 1012.1 |
| 20260504214005 | 22 | 146 | 1.6 | 9.7 | 0.00 | 0.00 | 0.00 | 59 | 1012.2 |
| 20260504213509 | 22 | 149 | 3.2 | 9.7 | 0.00 | 0.00 | 0.00 | 57 | 1012.1 |
| 20260504213014 | 22 | 54 | 3.2 | 12.9 | 0.00 | 0.00 | 0.00 | 58 | 1012.3 |
| 20260504212509 | 21 | 167 | 3.2 | 12.9 | 0.00 | 0.00 | 0.00 | 62 | 1012.4 |
| 20260504212007 | 21 | 86 | 0.0 | 12.9 | 0.00 | 0.00 | 0.00 | 63 | 1012.4 |
| 20260504211513 | 21 | 204 | 0.0 | 9.7 | 0.00 | 0.00 | 0.00 | 62 | 1012.5 |
| 20260504211003 | 21 | 191 | 4.8 | 9.7 | 0.00 | 0.00 | 0.00 | 62 | 1012.7 |
| 20260504210503 | 20 | 209 | 0.0 | 4.8 | 0.00 | 0.00 | 0.00 | 62 | 1012.7 |
| 20260504210019 | 21 | 170 | 0.0 | 8.0 | 0.00 | 0.00 | 0.00 | 61 | 1012.8 |
| 20260504205504 | 21 | 173 | 1.6 | 14.5 | 0.00 | 0.00 | 0.00 | 60 | 1012.9 |
| 20260504205003 | 21 | 194 | 3.2 | 14.5 | 0.00 | 0.00 | 0.00 | 62 | 1013.0 |
| 20260504204515 | 20 | 60 | 1.6 | 8.0 | 0.00 | 0.00 | 0.00 | 62 | 1013.1 |
| 20260504204004 | 20 | 107 | 0.0 | 4.8 | 0.00 | 0.00 | 0.00 | 62 | 1013.2 |
| 20260504203504 | 20 | 158 | 0.0 | 9.7 | 0.00 | 0.00 | 0.00 | 61 | 1013.3 |
| 20260504203019 | 20 | 229 | 3.2 | 9.7 | 0.00 | 0.00 | 0.00 | 60 | 1013.3 |
| 20260504202505 | 20 | 164 | 0.0 | 8.0 | 0.00 | 0.00 | 0.00 | 64 | 1013.3 |
| 20260504202004 | 20 | 220 | 1.6 | 3.2 | 0.00 | 0.00 | 0.00 | 62 | 1013.3 |
| 20260504201516 | 20 | 112 | 0.0 | 9.7 | 0.00 | 0.00 | 0.00 | 62 | 1013.4 |
| 20260504201008 | 20 | 237 | 0.0 | 9.7 | 0.00 | 0.00 | 0.00 | 62 | 1013.4 |
| 20260504200507 | 20 | 177 | 1.6 | 6.4 | 0.00 | 0.00 | 0.00 | 62 | 1013.4 |
| 20260504200016 | 20 | 235 | 0.0 | 9.7 | 0.00 | 0.00 | 0.00 | 63 | 1013.4 |
| 20260504195507 | 20 | 158 | 3.2 | 12.9 | 0.00 | 0.00 | 0.00 | 62 | 1013.5 |
| 20260504195008 | 19 | 215 | 3.2 | 12.9 | 0.00 | 0.00 | 0.00 | 67 | 1013.5 |
| 20260504194510 | 19 | 188 | 1.6 | 9.7 | 0.00 | 0.00 | 0.00 | 67 | 1013.5 |
| 20260504194005 | 19 | 169 | 0.0 | 9.7 | 0.00 | 0.00 | 0.00 | 69 | 1013.6 |
| 20260504193506 | 18 | 132 | 1.6 | 12.9 | 0.00 | 0.00 | 0.00 | 65 | 1013.6 |
| 20260504193021 | 18 | 138 | 4.8 | 12.9 | 0.00 | 0.00 | 0.00 | 69 | 1013.5 |
| 20260504192506 | 18 | 198 | 1.6 | 9.7 | 0.00 | 0.00 | 0.00 | 67 | 1013.7 |
| 20260504192010 | 18 | 110 | 1.6 | 9.7 | 0.00 | 0.00 | 0.00 | 67 | 1013.7 |
| 20260504191523 | 18 | 113 | 3.2 | 9.7 | 0.00 | 0.00 | 0.00 | 69 | 1013.7 |
| 20260504191008 | 17 | 178 | 1.6 | 8.0 | 0.00 | 0.00 | 0.00 | 69 | 1013.8 |
| 20260504190503 | 17 | 211 | 1.6 | 8.0 | 0.00 | 0.00 | 0.00 | 69 | 1013.8 |
| 20260504190025 | 17 | 127 | 1.6 | 9.7 | 0.00 | 0.00 | 0.00 | 71 | 1013.8 |
| 20260504185507 | 17 | 190 | 3.2 | 9.7 | 0.00 | 0.00 | 0.00 | 69 | 1013.9 |
| 20260504185003 | 17 | 169 | 0.0 | 9.7 | 0.00 | 0.00 | 0.00 | 70 | 1014.0 |
| 20260504184524 | 16 | 109 | 0.0 | 11.3 | 0.00 | 0.00 | 0.00 | 72 | 1014.1 |
| 20260504184008 | 16 | 153 | 4.8 | 11.3 | 0.00 | 0.00 | 0.00 | 72 | 1014.2 |
| 20260504183511 | 16 | 174 | 4.8 | 9.7 | 0.00 | 0.00 | 0.00 | 72 | 1014.1 |
| 20260504183020 | 16 | 157 | 3.2 | 11.3 | 0.00 | 0.00 | 0.00 | 73 | 1014.0 |
| 20260504182512 | 16 | 183 | 0.0 | 11.3 | 0.00 | 0.00 | 0.00 | 73 | 1013.9 |
| 20260504182011 | 16 | 164 | 0.0 | 6.4 | 0.00 | 0.00 | 0.00 | 75 | 1013.8 |
| 20260504181521 | 16 | 264 | 0.0 | 3.2 | 0.00 | 0.00 | 0.00 | 73 | 1013.8 |
| 20260504181007 | 16 | 126 | 0.0 | 4.8 | 0.00 | 0.00 | 0.00 | 72 | 1013.8 |
| 20260504180513 | 16 | 202 | 1.6 | 8.0 | 0.00 | 0.00 | 0.00 | 74 | 1014.0 |
| 20260504180019 | 16 | 244 | 0.0 | 8.0 | 0.00 | 0.00 | 0.00 | 73 | 1014.0 |
| 20260504175504 | 16 | 130 | 0.0 | 4.8 | 0.00 | 0.00 | 0.00 | 74 | 1014.0 |
| 20260504175010 | 15 | 119 | 0.0 | 4.8 | 0.00 | 0.00 | 0.00 | 75 | 1014.0 |
| 20260504174510 | 15 | 153 | 0.0 | 8.0 | 0.00 | 0.00 | 0.00 | 74 | 1014.1 |
| 20260504174006 | 15 | 84 | 1.6 | 8.0 | 0.00 | 0.00 | 0.00 | 75 | 1014.0 |
| 20260504173508 | 15 | 116 | 1.6 | 8.0 | 0.00 | 0.00 | 0.00 | 75 | 1014.1 |
| 20260504173017 | 15 | 133 | 1.6 | 11.3 | 0.00 | 0.00 | 0.00 | 75 | 1014.0 |
| 20260504172502 | 15 | 177 | 0.0 | 11.3 | 0.00 | 0.00 | 0.00 | 77 | 1014.0 |
| 20260504172006 | 15 | 128 | 1.6 | 11.3 | 0.00 | 0.00 | 0.00 | 75 | 1013.9 |
| 20260504171517 | 15 | 72 | 1.6 | 6.4 | 0.00 | 0.00 | 0.00 | 75 | 1013.8 |
| 20260504171010 | 15 | 144 | 1.6 | 11.3 | 0.00 | 0.00 | 0.00 | 76 | 1013.9 |
| 20260504170507 | 15 | 135 | 1.6 | 11.3 | 0.00 | 0.00 | 0.00 | 76 | 1013.9 |
| 20260504151013 | 13 | 147 | 0.0 | 4.8 | 0.00 | 0.00 | 0.00 | 79 | 1013.5 |
| 20260504150507 | 13 | 108 | 0.0 | 4.8 | 0.00 | 0.00 | 0.00 | 79 | 1013.4 |